Regional Weather Roundup
Issued by NWS Green Bay, WI

Home | Current Version | Previous Version | Text Only | Print | Product List | Glossary On
Versions: 1 2 3 4 5 6 7 8 9 10 11 12 13 14 15 16 17 18 19 20 21 22 23 24 25 26 27 28 29 30 31 32 33 34 35 36 37 38 39 40 41 42 43 44 45 46 47 48 49 50
000
ASUS43 KGRB 150659
RWRGRB

NORTH-CENTRAL AND NORTHEAST WISCONSIN REGIONAL WEATHER ROUNDUP
NATIONAL WEATHER SERVICE GREEN BAY WI
200 AM CDT TUE APR 15 2014

WIZ005-009-010>012-018-019-150800-
NORTH CENTRAL WISCONSIN

CITY           SKY/WX    TMP DP  RH WIND       PRES   REMARKS
IRONWOOD       PTCLDY    16  10  79 CALM      29.97F
MANITOWISH WTR NOT AVBL
ARBOR VITAE    NOT AVBL
EAGLE RIVER    NOT AVBL
LAND O LAKES   NOT AVBL
RHINELANDER    CLEAR      6  -1  73 NW3       29.97F
PHILLIPS       NOT AVBL
ANTIGO         NOT AVBL
TOMAHAWK       NOT AVBL
MERRILL        NOT AVBL
$$

WIZ013-073-150800-
NORTHEAST WISCONSIN

CITY           SKY/WX    TMP DP  RH WIND       PRES   REMARKS
IRON MOUNTAIN  CLEAR     12   8  84 CALM      29.96F
MARINETTE      CLEAR     19  16  86 NW5       30.00S
$$

WIZ017-030-035>037-045-150800-
CENTRAL WISCONSIN

CITY           SKY/WX    TMP DP  RH WIND       PRES   REMARKS
MEDFORD        NOT AVBL
WAUSAU         CLEAR     14   9  80 NW3       29.99F
MOSINEE        NOT AVBL
MARSHFIELD     CLEAR     19  11  70 NW3       30.01S
WISC RAPIDS    CLEAR     17  11  77 N3        30.04S
STEVENS POINT  NOT AVBL
WAUPACA        NOT AVBL
SHAWANO        NOT AVBL
CLINTONVILLE   NOT AVBL
$$

WIZ038-039-048-051-150800-
FOX VALLEY

CITY           SKY/WX    TMP DP  RH WIND       PRES   REMARKS
NWS GREEN BAY  CLEAR     22  16  78 N7        30.02S
APPLETON       NOT AVBL
OSHKOSH        CLEAR     23  14  68 N8        30.00F
FOND DU LAC    CLEAR     25  16  68 N9        30.01S
$$

WIZ022-050-052-150800-
EAST CENTRAL WISCONSIN

CITY           SKY/WX    TMP DP  RH WIND       PRES   REMARKS
STURGEON BAY   CLEAR     21  10  63 NW13      29.99S WCI   9
MANITOWOC      NOT AVBL
SHEBOYGAN      FLURRIES  24  17  74 N9        30.00S
$$

LMZ563-521-522-541>543-150800-
LAKESHORE

STATION/POSITION TIME  TEMP    WIND        PRES    VSBY  WAVE
                       AIR SEA DIR/SP/G                  HT/PER
                 (UTC) (F)     (DEG/KT/KT) (MB)    (MI)  (FT/S)
SHEBOYGAN LKSHOR 0600   27     330/ 14/ 15 1016.8R
KEWAUNEE LKSHORE 0600   23     340/  5/ 10 1016.6F
NORTHPORT PIER   0600   24     320/ 17       N/A
SISTER BAY LKSHO 0600   22     340/ 18/ 19   N/A
MENOMINEE LKSHOR 0600   21     300/  6/  8 1016.7F
$$



USA.gov is the U.S. government's official web portal to all federal, state and local government web resources and services.